Weather in Zanadvorovka

Russia / Primorsky Krai     43°18′00″N   131°36′30″E
temp.,
°C
wind,
m/s
gust,
m/s
humid.,
%
clouds,
%
prec.,
mm/h
press.,
hPa
HPBL,
m
20 january, thu
thu2001:00−14n413758 0.0 1028761
04:00−15n310753 0.0 1028509
07:00−16n24805 0.0 1029112
10:00−15n25685 0.0 1030240
13:00−10n48435 0.0 10291050
16:00−9n48445 0.0 10281265
19:00−13nne38724 0.0 1031517
22:00−14n29735 0.0 1032584
21 january, fri
fri2101:00−14n310654 0.0 1033747
04:00−15n310645 0.0 1034717
07:00−15n310663 0.0 1034549
10:00−15n29610 0.0 1035544
13:00−10nne47455 0.0 1034690
16:00−9nne364234 0.0 1032610
19:00−12nne226962 0.0 103257
22:00−14n12775 0.0 103243
22 january, sat
sat2201:00−15n11795 0.0 103235
04:00−15n218142 0.0 103137
07:00−15nnw21835 0.0 103132
10:00−13n1270100 0.0 103186
13:00−9nne1347100 0.0 1030357
16:00−8ne234599 0.0 1028406
19:00−10n2264100 0.0 102973
22:00−11n2362100 0.0 1029125
23 january, sun
sun2301:00−11n226393 0.0 102883
04:00−12n2269100 0.0 102863
07:00−12n2275100 0.0 102769
10:00−11n2468100 0.0 1028171
13:00−7n364796 0.0 1027671
16:00−5nne47515 0.0 1026842
19:00−10nne12813 0.0 102840
22:00−11n22865 0.0 102954
24 january, mon
mon2401:00−12nnw21875 0.0 102935
04:00−13nnw218637 0.0 102931
07:00−13nnw218521 0.0 102828
10:00−11n12705 0.0 102859
13:00−6ne1247100 0.0 1026391
16:00−5ene224683 0.0 1025409
19:00−8nne1170100 0.0 102426
22:00−9n1172100 0.0 102440